TimeCST,TemperatureF,Dew PointF,Humidity,Sea Level PressureIn,VisibilityMPH,Wind Direction,Wind SpeedMPH,Gust SpeedMPH,PrecipitationIn,Events,Conditions,WindDirDegrees,DateUTC
12:53 AM,34.0,27.0,75,30.11,10.0,Calm,Calm,-,N/A,,Clear,0,2013-03-04 06:53:00
1:53 AM,34.0,24.1,67,30.10,10.0,ESE,3.5,-,N/A,,Clear,110,2013-03-04 07:53:00
2:53 AM,34.0,21.9,61,30.07,10.0,ESE,3.5,-,N/A,,Clear,120,2013-03-04 08:53:00
3:53 AM,35.1,21.9,59,30.06,10.0,Calm,Calm,-,N/A,,Clear,0,2013-03-04 09:53:00
4:53 AM,36.0,21.9,57,30.06,10.0,SE,4.6,-,N/A,,Clear,140,2013-03-04 10:53:00
5:53 AM,36.0,23.0,59,30.05,10.0,ESE,4.6,-,N/A,,Clear,120,2013-03-04 11:53:00
6:53 AM,37.0,21.9,54,30.05,10.0,Variable,5.8,-,N/A,,Clear,0,2013-03-04 12:53:00
7:53 AM,39.0,23.0,53,30.05,10.0,SSE,5.8,-,N/A,,Clear,150,2013-03-04 13:53:00
8:53 AM,45.0,23.0,42,30.04,10.0,SSE,8.1,18.4,N/A,,Clear,150,2013-03-04 14:53:00
9:53 AM,51.1,27.0,39,30.01,10.0,South,13.8,19.6,N/A,,Clear,170,2013-03-04 15:53:00
10:53 AM,54.0,27.0,35,29.95,10.0,SSE,11.5,21.9,N/A,,Clear,160,2013-03-04 16:53:00
11:53 AM,60.1,28.9,31,29.91,10.0,South,15.0,25.3,N/A,,Clear,170,2013-03-04 17:53:00
12:53 PM,63.0,30.0,29,29.86,10.0,SSE,17.3,27.6,N/A,,Clear,160,2013-03-04 18:53:00
1:53 PM,64.0,30.0,28,29.82,10.0,SSE,11.5,23.0,N/A,,Clear,160,2013-03-04 19:53:00
2:53 PM,64.9,30.9,28,29.81,10.0,South,11.5,24.2,N/A,,Clear,170,2013-03-04 20:53:00
3:53 PM,64.0,32.0,30,29.80,10.0,South,13.8,23.0,N/A,,Mostly Cloudy,180,2013-03-04 21:53:00
4:53 PM,63.0,32.0,31,29.81,10.0,SSE,10.4,23.0,N/A,,Overcast,160,2013-03-04 22:53:00
5:53 PM,62.1,32.0,32,29.81,10.0,SSE,6.9,16.1,N/A,,Overcast,150,2013-03-04 23:53:00
6:53 PM,61.0,33.1,35,29.81,10.0,SSE,8.1,-,N/A,,Overcast,160,2013-03-05 00:53:00
7:53 PM,61.0,34.0,36,29.81,10.0,SSE,8.1,-,N/A,,Overcast,160,2013-03-05 01:53:00
8:53 PM,61.0,35.1,38,29.80,10.0,South,10.4,16.1,N/A,,Overcast,170,2013-03-05 02:53:00
9:53 PM,61.0,37.0,41,29.78,10.0,South,15.0,25.3,N/A,,Overcast,180,2013-03-05 03:53:00
10:53 PM,61.0,41.0,48,29.76,10.0,South,17.3,28.8,N/A,,Overcast,190,2013-03-05 04:53:00
11:53 PM,60.1,43.0,53,29.76,10.0,South,13.8,25.3,N/A,,Overcast,190,2013-03-05 05:53:00